Location: Gwatt
(46.7204°N, 7.6223°E)
Time: 10:39:32
(UTC+00:00)

CZ-2C R/B - Pass Details

Date: 18 September 2020
Orbit: 640 x 704 km, 98.4° (Epoch: 24 October)

Event Time Altitude Azimuth Distance (km) Brightness Sun altitude
Rises 19:59:11 0° 13° (NNE) 2,962 7.3 -24.4°
Reaches altitude 10° 20:01:23 10° 13° (NNE) 2,051 6.4 -24.7°
Enters shadow 20:05:31 76° 3° (N) 673 3.6 -25.3°
